TUI5GY EDDF-LPMA

Flight info

Callsign TUI5GY
Flight time N/A
Altitude 36000
Route ANEKI3F/25C ANEKI Y163 HERBI Y164 MOPAN DCT LUTIX/N0459F370 DCT BENOT DCT NEMOS DCT NINTU DCT MEBAK DCT REPSI DCT LERGA DCT MINSO DCT NARAK DCT AGN DCT LATEK DCT PPN DCT MIRPO DCT DGO DCT NEA DCT ZANKO DCT RIDAV DCT ADINO DCT GUDAV DCT ORTUG DCT ULVOT DCT NARTA DCT GALPA DCT RULET DCT RAKUN
Aircraft B738/M-SDE2E3FGHIRWXY/LB1

Departure

Time 2026-04-18 09:15
Airport Frankfurt Main Airport (EDDF)

Arrival

Time N/A
Airport Cristiano Ronaldo International Airport (LPMA)
Time Latitude Longitude Altitude Speed Heading
2026-04-18 08:40 50.04866 8.58978 364 ft 0 kts 340°
2026-04-18 09:01 50.04847 8.58989 366 ft 4 kts 340°
2026-04-18 09:02 50.04823 8.59004 366 ft 4 kts 325°
2026-04-18 09:02 50.04805 8.59032 367 ft 4 kts 291°
2026-04-18 09:02 50.04802 8.59071 371 ft 4 kts 253°
2026-04-18 09:02 50.04809 8.59102 367 ft 4 kts 250°
2026-04-18 09:03 50.04811 8.59114 367 ft 1 kts 250°
2026-04-18 09:04 50.04811 8.59111 367 ft 1 kts 249°
2026-04-18 09:05 50.04797 8.59058 367 ft 9 kts 248°
2026-04-18 09:05 50.04768 8.58939 370 ft 13 kts 250°
2026-04-18 09:05 50.04739 8.58820 370 ft 11 kts 248°
2026-04-18 09:05 50.04694 8.58768 371 ft 7 kts 191°
2026-04-18 09:06 50.04679 8.58765 369 ft 2 kts 188°
2026-04-18 09:06 50.04664 8.58762 369 ft 2 kts 187°
2026-04-18 09:06 50.04647 8.58759 369 ft 3 kts 187°
2026-04-18 09:06 50.04634 8.58756 369 ft 0 kts 188°
2026-04-18 09:10 50.04612 8.58745 369 ft 9 kts 204°
2026-04-18 09:11 50.04548 8.58668 370 ft 13 kts 219°
2026-04-18 09:11 50.04485 8.58573 369 ft 13 kts 240°
2026-04-18 09:11 50.04477 8.58545 369 ft 0 kts 249°
2026-04-18 09:14 50.04456 8.58459 369 ft 32 kts 250°
2026-04-18 09:14 50.04293 8.57774 366 ft 102 kts 250°
2026-04-18 09:14 50.03974 8.56443 357 ft 159 kts 250°
2026-04-18 09:14 50.03569 8.54655 705 ft 179 kts 251°
2026-04-18 09:15 50.03131 8.52836 1484 ft 180 kts 250°
2026-04-18 09:15 50.02611 8.50987 2045 ft 199 kts 236°
2026-04-18 09:15 50.01419 8.49733 2321 ft 217 kts 199°
2026-04-18 09:15 49.99961 8.49045 2830 ft 222 kts 191°
2026-04-18 09:16 49.98419 8.49300 3324 ft 231 kts 156°
2026-04-18 09:16 49.97163 8.50890 3800 ft 240 kts 128°
2026-04-18 09:16 49.96040 8.52717 4475 ft 235 kts 152°
2026-04-18 09:16 49.94452 8.53381 4911 ft 241 kts 180°
2026-04-18 09:17 49.92686 8.53413 5144 ft 266 kts 181°
2026-04-18 09:17 49.90824 8.53427 5833 ft 268 kts 180°
2026-04-18 09:17 49.88974 8.53475 6804 ft 265 kts 180°
2026-04-18 09:17 49.87122 8.53556 7522 ft 269 kts 179°
2026-04-18 09:18 49.85230 8.53663 8167 ft 275 kts 179°
2026-04-18 09:18 49.83307 8.53789 8881 ft 278 kts 179°
2026-04-18 09:18 49.81364 8.53923 9581 ft 282 kts 179°
2026-04-18 09:18 49.79390 8.54061 10271 ft 286 kts 179°
2026-04-18 09:19 49.77353 8.54156 10617 ft 302 kts 183°
2026-04-18 09:19 49.75188 8.53949 10781 ft 322 kts 186°
2026-04-18 09:19 49.72889 8.53605 10938 ft 342 kts 187°
2026-04-18 09:19 49.70458 8.53223 11081 ft 360 kts 187°
2026-04-18 09:20 49.67934 8.52838 11210 ft 377 kts 187°
2026-04-18 09:20 49.65267 8.52451 11451 ft 390 kts 187°
2026-04-18 09:20 49.62534 8.52070 11859 ft 397 kts 187°
2026-04-18 09:20 49.59771 8.51697 12399 ft 400 kts 187°
2026-04-18 09:21 49.56985 8.51327 12944 ft 403 kts 187°
2026-04-18 09:21 49.54182 8.50956 13446 ft 407 kts 187°
2026-04-18 09:21 49.51346 8.50582 13939 ft 411 kts 187°
2026-04-18 09:21 49.48482 8.50205 14401 ft 414 kts 187°
2026-04-18 09:22 49.45607 8.49827 14874 ft 417 kts 187°
2026-04-18 09:22 49.42700 8.49444 15357 ft 419 kts 187°
2026-04-18 09:22 49.39780 8.49060 15788 ft 423 kts 188°
2026-04-18 09:22 49.36830 8.48672 16262 ft 426 kts 188°
2026-04-18 09:23 49.33866 8.48283 16758 ft 429 kts 188°
2026-04-18 09:23 49.30882 8.47892 17231 ft 431 kts 188°
2026-04-18 09:23 49.27883 8.47504 17680 ft 435 kts 188°
2026-04-18 09:23 49.24850 8.47120 18125 ft 438 kts 188°
2026-04-18 09:24 49.21807 8.46737 18559 ft 441 kts 188°
2026-04-18 09:24 49.18741 8.46350 18930 ft 444 kts 187°
2026-04-18 09:24 49.15654 8.45963 19325 ft 446 kts 187°
2026-04-18 09:24 49.12593 8.45578 19739 ft 447 kts 187°
2026-04-18 09:25 49.09484 8.45188 20148 ft 449 kts 187°
2026-04-18 09:25 49.06365 8.44771 20535 ft 451 kts 189°
2026-04-18 09:25 49.03284 8.43937 20906 ft 450 kts 195°
2026-04-18 09:25 49.00231 8.42823 21280 ft 452 kts 197°
2026-04-18 09:26 48.97167 8.41667 21613 ft 454 kts 197°
2026-04-18 09:26 48.94086 8.40524 21932 ft 457 kts 196°
2026-04-18 09:26 48.90979 8.39406 22292 ft 459 kts 195°
2026-04-18 09:26 48.88919 8.38679 22540 ft 460 kts 195°
2026-04-18 09:27 48.85787 8.37588 22880 ft 462 kts 195°
2026-04-18 09:27 48.82645 8.36499 23212 ft 464 kts 195°
2026-04-18 09:27 48.78459 8.35047 23633 ft 466 kts 195°
2026-04-18 09:27 48.76325 8.34290 23819 ft 468 kts 196°
2026-04-18 09:28 48.73140 8.33134 24015 ft 471 kts 196°
2026-04-18 09:28 48.69956 8.31966 24267 ft 472 kts 196°
2026-04-18 09:28 48.66755 8.30793 24537 ft 473 kts 196°
2026-04-18 09:28 48.63586 8.29637 24818 ft 474 kts 196°
2026-04-18 09:29 48.60374 8.28471 25071 ft 476 kts 196°
2026-04-18 09:29 48.57146 8.27303 25328 ft 477 kts 196°
2026-04-18 09:29 48.53914 8.26136 25668 ft 476 kts 196°
2026-04-18 09:29 48.50690 8.24975 26051 ft 474 kts 196°
2026-04-18 09:30 48.47497 8.23823 26438 ft 472 kts 197°
2026-04-18 09:30 48.44292 8.22658 26771 ft 471 kts 197°
2026-04-18 09:30 48.41109 8.21496 27097 ft 471 kts 197°
2026-04-18 09:30 48.37924 8.20335 27457 ft 470 kts 197°
2026-04-18 09:31 48.34748 8.19179 27792 ft 469 kts 197°
2026-04-18 09:31 48.31571 8.18024 28128 ft 469 kts 197°
2026-04-18 09:31 48.28406 8.16878 28479 ft 468 kts 197°
2026-04-18 09:31 48.25258 8.15692 28856 ft 465 kts 200°
2026-04-18 09:32 48.22253 8.13977 29226 ft 459 kts 209°
2026-04-18 09:32 48.19397 8.11844 29617 ft 457 kts 210°
2026-04-18 09:32 48.16562 8.09688 29982 ft 456 kts 210°
2026-04-18 09:32 48.13766 8.07565 30295 ft 456 kts 210°
2026-04-18 09:33 48.10895 8.05402 30563 ft 456 kts 210°
2026-04-18 09:33 48.08060 8.03286 30836 ft 455 kts 210°
2026-04-18 09:33 48.05262 8.01214 31151 ft 454 kts 210°
2026-04-18 09:33 48.02435 7.99130 31445 ft 453 kts 210°
2026-04-18 09:34 47.99608 7.97054 31719 ft 452 kts 210°
2026-04-18 09:34 47.96786 7.94984 31979 ft 451 kts 210°
2026-04-18 09:34 47.93974 7.92924 32235 ft 451 kts 210°
2026-04-18 09:34 47.91157 7.90863 32445 ft 450 kts 210°
2026-04-18 09:35 47.88341 7.88805 32694 ft 449 kts 210°
2026-04-18 09:35 47.85537 7.86758 32978 ft 448 kts 210°
2026-04-18 09:35 47.82744 7.84720 33246 ft 447 kts 210°
2026-04-18 09:35 47.79946 7.82682 33493 ft 446 kts 210°
2026-04-18 09:36 47.77155 7.80651 33728 ft 446 kts 209°
2026-04-18 09:36 47.74372 7.78628 33954 ft 445 kts 209°
2026-04-18 09:36 47.71592 7.76610 34192 ft 445 kts 209°
2026-04-18 09:36 47.68807 7.74591 34373 ft 445 kts 209°
2026-04-18 09:37 47.66028 7.72578 34565 ft 444 kts 209°
2026-04-18 09:37 47.63286 7.70595 34715 ft 444 kts 209°
2026-04-18 09:37 47.60478 7.68566 34908 ft 444 kts 209°
2026-04-18 09:37 47.57706 7.66566 35093 ft 443 kts 209°
2026-04-18 09:38 47.54965 7.64590 35267 ft 443 kts 209°
2026-04-18 09:38 47.52200 7.62599 35428 ft 442 kts 209°
2026-04-18 09:38 47.49429 7.60607 35592 ft 442 kts 209°
2026-04-18 09:38 47.46666 7.58622 35758 ft 442 kts 209°
2026-04-18 09:39 47.43896 7.56635 35931 ft 441 kts 209°
2026-04-18 09:39 47.41136 7.54657 36092 ft 441 kts 209°
2026-04-18 09:39 47.35592 7.50690 36197 ft 444 kts 209°
2026-04-18 09:40 47.30043 7.46730 36199 ft 442 kts 209°
2026-04-18 09:40 47.24500 7.42782 36209 ft 440 kts 209°
2026-04-18 09:41 47.19052 7.38836 36207 ft 437 kts 214°
2026-04-18 09:41 47.14387 7.33320 36202 ft 428 kts 231°
2026-04-18 09:42 47.10720 7.26490 36212 ft 426 kts 235°
2026-04-18 09:42 47.07063 7.19622 36220 ft 427 kts 234°
2026-04-18 09:43 47.03343 7.12792 36226 ft 429 kts 233°
2026-04-18 09:43 46.99614 7.06001 36219 ft 431 kts 233°
2026-04-18 09:44 46.95823 6.99101 36201 ft 432 kts 233°
2026-04-18 09:44 46.92071 6.92283 36219 ft 433 kts 233°
2026-04-18 09:45 46.88281 6.85417 36211 ft 434 kts 233°
2026-04-18 09:45 46.84478 6.78546 36212 ft 434 kts 233°
2026-04-18 09:46 46.80671 6.71682 36213 ft 434 kts 233°
2026-04-18 09:46 46.76867 6.64836 36203 ft 434 kts 233°
2026-04-18 09:47 46.73081 6.58042 36218 ft 434 kts 233°
2026-04-18 09:47 46.69275 6.51227 36210 ft 433 kts 233°
2026-04-18 09:48 46.65477 6.44442 36218 ft 432 kts 233°
2026-04-18 09:48 46.61672 6.37664 36213 ft 431 kts 233°
2026-04-18 09:49 46.57878 6.30921 36207 ft 430 kts 233°
2026-04-18 09:49 46.54087 6.24198 36200 ft 430 kts 233°
2026-04-18 09:50 46.50294 6.17489 36210 ft 429 kts 233°
2026-04-18 09:50 46.46498 6.10790 36197 ft 429 kts 233°
2026-04-18 09:51 46.42703 6.04111 36199 ft 429 kts 233°
2026-04-18 09:51 46.38902 5.97436 36200 ft 429 kts 233°
2026-04-18 09:52 46.35123 5.90815 36204 ft 429 kts 233°
2026-04-18 09:52 46.31314 5.84160 36202 ft 430 kts 233°
2026-04-18 09:53 46.27502 5.77512 36196 ft 430 kts 233°
2026-04-18 09:53 46.23679 5.70863 36196 ft 430 kts 233°
2026-04-18 09:54 46.19861 5.64235 36194 ft 429 kts 232°
2026-04-18 09:54 46.16032 5.57605 36193 ft 430 kts 232°
2026-04-18 09:55 46.12421 5.50765 36192 ft 428 kts 237°
2026-04-18 09:55 46.09064 5.43681 36199 ft 428 kts 238°
2026-04-18 09:56 46.05712 5.36607 36194 ft 428 kts 238°
2026-04-18 09:56 46.02332 5.29552 36187 ft 427 kts 237°
2026-04-18 09:57 45.98943 5.22530 36194 ft 427 kts 237°
2026-04-18 09:57 45.95551 5.15524 36203 ft 427 kts 237°
2026-04-18 09:58 45.92153 5.08524 36209 ft 427 kts 237°
2026-04-18 09:58 45.88748 5.01524 36202 ft 427 kts 237°
2026-04-18 09:59 45.85365 4.94586 36187 ft 427 kts 237°
2026-04-18 10:00 45.80254 4.84137 36218 ft 426 kts 237°
2026-04-18 10:00 45.76842 4.77181 36204 ft 426 kts 237°
2026-04-18 10:01 45.73428 4.70236 36222 ft 426 kts 237°
2026-04-18 10:01 45.70010 4.63300 36205 ft 426 kts 237°
2026-04-18 10:02 45.66615 4.56412 36196 ft 426 kts 237°
2026-04-18 10:02 45.63198 4.49484 36226 ft 426 kts 237°
2026-04-18 10:03 45.59780 4.42573 36246 ft 426 kts 237°
2026-04-18 10:03 45.56350 4.35651 36226 ft 427 kts 237°
2026-04-18 10:04 45.52915 4.28739 36237 ft 427 kts 237°
2026-04-18 10:04 45.49483 4.21885 36219 ft 428 kts 236°
2026-04-18 10:05 45.46013 4.15010 36237 ft 427 kts 236°
2026-04-18 10:05 45.42541 4.08138 36216 ft 427 kts 236°
2026-04-18 10:06 45.39067 4.01275 36232 ft 427 kts 236°
2026-04-18 10:06 45.35588 3.94414 36215 ft 427 kts 236°
2026-04-18 10:07 45.32107 3.87566 36212 ft 427 kts 236°
2026-04-18 10:07 45.28627 3.80733 36233 ft 427 kts 236°
2026-04-18 10:08 45.25142 3.73903 36211 ft 427 kts 236°
2026-04-18 10:08 45.21730 3.67011 36220 ft 427 kts 237°
2026-04-18 10:09 45.18358 3.60130 36222 ft 427 kts 237°
2026-04-18 10:09 45.14956 3.53223 36212 ft 428 kts 237°
2026-04-18 10:10 45.11538 3.46318 36205 ft 428 kts 237°
2026-04-18 10:10 45.08112 3.39420 36208 ft 428 kts 237°